This is the latest recevied weather packets stored in our database for station/object SPRFLD. If no packets are shown the sender has not sent any weather packets the latest 10 day(s).
| Time | Temp. | Humidity | Pressure | Rain* | Wind** | Luminosity | Snow |
|---|---|---|---|---|---|---|---|
| 1777412285 | 14.44° C | 60% | 1023.3 hPa | 0 mm | - | - | - |
| 1777409910 | 13.89° C | 60% | 1023.6 hPa | 0 mm | - | - | - |
| 1777407501 | 12.78° C | 64% | 1023.6 hPa | 0 mm | - | - | - |
| 1777406298 | 13.33° C | 62% | 1023.8 hPa | 0 mm | - | - | - |
| 1777405093 | 11.67° C | 67% | 1023.8 hPa | 0 mm | - | - | - |
| 1777400351 | 10° C | 80% | 1023.9 hPa | 0 mm | - | - | - |
| 1777399707 | 10° C | 80% | 1023.9 hPa | 0 mm | - | - | - |
| 1777399105 | 9.44° C | 81% | 1023.9 hPa | 0 mm | - | - | - |
| 1777397925 | 8.89° C | 85% | 1023.9 hPa | 0 mm | - | - | - |
| 1777396096 | 8.33° C | 88% | 1023.6 hPa | 0 mm | - | - | - |
| 1777386493 | 6.11° C | 92% | 1022.7 hPa | 0 mm | - | - | - |
| 1777379301 | 6.11° C | 92% | 1022.1 hPa | 0 mm | - | - | - |
| 1777378697 | 6.11° C | 92% | 1022 hPa | 0 mm | - | - | - |
| 1777377494 | 6.11° C | 91% | 1021.9 hPa | 0 mm | - | - | - |
| 1777375087 | 6.11° C | 91% | 1021.7 hPa | 0 mm | - | - | - |
| 1777363708 | 6.67° C | 86% | 1021.4 hPa | 0 mm | - | - | - |
| 1777361300 | 7.22° C | 84% | 1021.2 hPa | 0 mm | - | - | - |
| 1777355324 | 8.89° C | 78% | 1020.6 hPa | 0 mm | - | - | - |
| 1777352906 | 8.89° C | 77% | 1020.4 hPa | 0 mm | - | - | - |
| 1777348688 | 10° C | 74% | 1019.5 hPa | 0 mm | - | - | - |
| 1777346302 | 10.56° C | 72% | 1019.4 hPa | 0 mm | - | - | - |
| 1777343323 | 11.67° C | 67% | 1019.1 hPa | 0 mm | - | - | - |
| 1777342699 | 11.67° C | 66% | 1019.1 hPa | 0 mm | - | - | - |
| 1777338484 | 13.89° C | 57% | 1019 hPa | 0 mm | - | - | - |
| 1777336109 | 16.11° C | 52% | 1019 hPa | 0 mm | - | - | - |
* Rain latest hour (hover to see other rain measurements)
** Current wind speed in m/s (hover to see current wind gust speed)